This is the latest recevied weather packets stored in our database for station/object WD9U. If no packets are shown the sender has not sent any weather packets the latest 10 day(s).
| Time | Temp. | Humidity | Pressure | Rain* | Wind** | Luminosity | Snow |
|---|---|---|---|---|---|---|---|
| 1777742709 | 13.33° C | 27% | 1015.6 hPa | 0 mm | - | 795 W/m² | - |
| 1777742349 | 13.33° C | 26% | 1015.7 hPa | 0 mm | - | 780 W/m² | - |
| 1777741989 | 13.33° C | 25% | 1015.9 hPa | 0 mm | - | 782 W/m² | - |
| 1777741629 | 12.78° C | 26% | 1016 hPa | 0 mm | - | 738 W/m² | - |
| 1777741511 | 12.78° C | 26% | 1016 hPa | 0 mm | - | 594 W/m² | - |
| 1777741269 | 12.78° C | 26% | 1016.1 hPa | 0 mm | - | 413 W/m² | - |
| 1777740909 | 12.78° C | 26% | 1016.1 hPa | 0 mm | - | 692 W/m² | - |
| 1777740549 | 12.78° C | 27% | 1016.3 hPa | 0 mm | - | 852 W/m² | - |
| 1777740311 | 12.78° C | 26% | 1016.3 hPa | 0 mm | - | 738 W/m² | - |
| 1777740189 | 12.78° C | 26% | 1016.3 hPa | 0 mm | - | 774 W/m² | - |
| 1777739828 | 12.78° C | 26% | 1016.4 hPa | 0 mm | - | 774 W/m² | - |
| 1777739468 | 12.78° C | 27% | 1016.6 hPa | 0 mm | - | 776 W/m² | - |
| 1777739107 | 12.78° C | 26% | 1016.6 hPa | 0 mm | - | 774 W/m² | - |
| 1777738747 | 12.78° C | 28% | 1016.7 hPa | 0 mm | - | 766 W/m² | - |
| 1777738387 | 12.22° C | 27% | 1016.8 hPa | 0 mm | - | 754 W/m² | - |
| 1777738027 | 12.22° C | 27% | 1016.9 hPa | 0 mm | - | 744 W/m² | - |
| 1777737919 | 12.22° C | 26% | 1016.9 hPa | 0 mm | - | 744 W/m² | - |
| 1777737667 | 12.22° C | 27% | 1016.9 hPa | 0 mm | - | 739 W/m² | - |
| 1777737307 | 12.22° C | 27% | 1017 hPa | 0 mm | - | 728 W/m² | - |
| 1777736947 | 12.22° C | 29% | 1017.2 hPa | 0 mm | - | 716 W/m² | - |
| 1777736719 | 12.22° C | 28% | 1017.1 hPa | 0 mm | - | 706 W/m² | - |
| 1777736587 | 12.22° C | 31% | 1017.2 hPa | 0 mm | - | 702 W/m² | - |
| 1777736227 | 12.22° C | 29% | 1017.2 hPa | 0 mm | - | 692 W/m² | - |
| 1777735877 | 12.78° C | 28% | 1017.2 hPa | 0 mm | - | 682 W/m² | - |
| 1777735517 | 12.78° C | 32% | 1017.3 hPa | 0 mm | - | 668 W/m² | - |
* Rain latest hour (hover to see other rain measurements)
** Current wind speed in m/s (hover to see current wind gust speed)